TIANQI 25 (59909 NORAD) Tracking and Keplerian Element Data

This shows tracking and keplerian element data for the satellite.

Feedback or suggestion? Click here.




ElementValue
Catalog59909
NameTIANQI 25
Epoch Orbit141
Epoch Day160.29753667
Epoch Year2024
RAAN310.619
Inclination44.9761
Eccentricity0.0012647
Argument of Perigee354.5771
Mean Anonmoly92.9511
Mean Motion14.14234523
Decay Rate-4.616E-05
L11 59909U 24102A 24160.29753667 -.00004616 00000+0 -23305-2 0 9992
L22 59909 44.9761 310.6190 0012647 354.5771 92.9511 14.14234523 1419



Live tracking and technical data element details for TIANQI 25 (NORAD 59909). TIANQI 25 can be tracked NOW for your location showing map with azimuth and elevation plus other details from your city location.







IsCatalogInMostPopularTable: catalog: 59909, numindb: 7
Update: records affected: 1



GetName: 59909 TIANQI 25

Hit Count: updated at: Thu, 25 Jul 2024 01:13:13 GMT